| time (UTC) | temp F | wind direction | speed MPH | gust MPH | rain 1hr in | rain 24hr in | rain mn in | humidity % | barometer mb |
| 20260906185428 | 87 | 98 | 1.0 | 2.0 | 0.00 | 0.00 | 0.00 | 70 | 1014.8 |
| 20260906184928 | 87 | 205 | 0.0 | 2.0 | 0.00 | 0.00 | 0.00 | 69 | 1014.9 |
| 20260906184429 | 87 | 223 | 0.0 | 2.0 | 0.00 | 0.00 | 0.00 | 71 | 1014.9 |
| 20260906183929 | 87 | 212 | 0.0 | 2.0 | 0.00 | 0.00 | 0.00 | 70 | 1015.0 |
| 20260906183429 | 87 | 217 | 1.0 | 2.0 | 0.00 | 0.00 | 0.00 | 71 | 1015.0 |
| 20260906182933 | 86 | 247 | 1.0 | 4.0 | 0.00 | 0.00 | 0.00 | 69 | 1015.1 |
| 20260906182928 | 86 | 217 | 1.0 | 4.0 | 0.00 | 0.00 | 0.00 | 69 | 1015.0 |
| 20260906182202 | 86 | 147 | 1.0 | 5.0 | 0.00 | 0.00 | 0.00 | 69 | 1015.2 |
| 20260906181429 | 86 | 251 | 1.0 | 5.0 | 0.00 | 0.00 | 0.00 | 69 | 1015.3 |
| 20260906180929 | 86 | 148 | 2.0 | 5.0 | 0.00 | 0.00 | 0.00 | 69 | 1015.2 |
| 20260906180429 | 86 | 210 | 2.0 | 5.0 | 0.00 | 0.00 | 0.00 | 71 | 1015.4 |
| 20260906175928 | 86 | 262 | 3.0 | 5.0 | 0.00 | 0.00 | 0.00 | 70 | 1015.5 |
| 20260906175429 | 86 | 226 | 3.0 | 5.0 | 0.00 | 0.00 | 0.00 | 69 | 1015.4 |
| 20260906174928 | 86 | 90 | 3.0 | 7.0 | 0.00 | 0.00 | 0.00 | 68 | 1015.3 |
| 20260906174431 | 86 | 264 | 3.0 | 7.0 | 0.00 | 0.00 | 0.00 | 67 | 1015.5 |
| 20260906174203 | 86 | 102 | 2.0 | 5.0 | 0.00 | 0.00 | 0.00 | 68 | 1015.5 |
| 20260906173700 | 86 | 245 | 2.0 | 5.0 | 0.00 | 0.00 | 0.00 | 71 | 1015.5 |
| 20260906172929 | 85 | 128 | 2.0 | 5.0 | 0.00 | 0.00 | 0.00 | 72 | 1015.6 |
| 20260906172429 | 85 | 212 | 2.0 | 4.0 | 0.00 | 0.00 | 0.00 | 71 | 1015.6 |
| 20260906171929 | 85 | 230 | 2.0 | 4.0 | 0.00 | 0.00 | 0.00 | 72 | 1015.7 |
| 20260906171429 | 85 | 232 | 1.0 | 4.0 | 0.00 | 0.00 | 0.00 | 71 | 1015.9 |
| 20260906170929 | 85 | 257 | 1.0 | 4.0 | 0.00 | 0.00 | 0.00 | 72 | 1016.1 |
| 20260906170429 | 85 | 200 | 2.0 | 6.0 | 0.00 | 0.00 | 0.00 | 72 | 1016.1 |
| 20260906165929 | 85 | 266 | 1.0 | 6.0 | 0.00 | 0.00 | 0.00 | 71 | 1016.1 |
| 20260906165428 | 85 | 219 | 1.0 | 4.0 | 0.00 | 0.00 | 0.00 | 70 | 1016.2 |
| 20260906164928 | 85 | 241 | 2.0 | 4.0 | 0.00 | 0.00 | 0.00 | 70 | 1016.2 |
| 20260906164430 | 85 | 167 | 2.0 | 5.0 | 0.00 | 0.00 | 0.00 | 71 | 1016.1 |
| 20260906163930 | 85 | 150 | 2.0 | 5.0 | 0.00 | 0.00 | 0.00 | 70 | 1016.0 |
| 20260906163430 | 85 | 256 | 1.0 | 4.0 | 0.00 | 0.00 | 0.00 | 70 | 1016.0 |
| 20260906162930 | 85 | 262 | 0.0 | 1.0 | 0.00 | 0.00 | 0.00 | 71 | 1016.1 |
| 20260906162432 | 84 | 263 | 1.0 | 2.0 | 0.00 | 0.00 | 0.00 | 72 | 1016.1 |
| 20260906162428 | 84 | 262 | 0.0 | 2.0 | 0.00 | 0.00 | 0.00 | 71 | 1016.1 |
| 20260906161700 | 83 | 230 | 1.0 | 2.0 | 0.00 | 0.00 | 0.00 | 71 | 1016.2 |
| 20260906160929 | 83 | 197 | 1.0 | 3.0 | 0.00 | 0.00 | 0.00 | 71 | 1016.3 |
| 20260906160700 | 83 | 224 | 1.0 | 3.0 | 0.00 | 0.00 | 0.00 | 74 | 1016.2 |
| 20260906160159 | 83 | 148 | 1.0 | 2.0 | 0.00 | 0.00 | 0.00 | 73 | 1016.2 |
| 20260906155429 | 83 | 262 | 1.0 | 2.0 | 0.00 | 0.00 | 0.00 | 75 | 1016.2 |
| 20260906154929 | 83 | 226 | 1.0 | 3.0 | 0.00 | 0.00 | 0.00 | 73 | 1016.3 |
| 20260906154429 | 83 | 205 | 1.0 | 3.0 | 0.00 | 0.00 | 0.00 | 73 | 1016.4 |
| 20260906153929 | 83 | 274 | 1.0 | 2.0 | 0.00 | 0.00 | 0.00 | 75 | 1016.3 |
| 20260906153429 | 82 | 257 | 1.0 | 4.0 | 0.00 | 0.00 | 0.00 | 75 | 1016.3 |
| 20260906152928 | 82 | 162 | 2.0 | 4.0 | 0.00 | 0.00 | 0.00 | 74 | 1016.2 |
| 20260906152428 | 82 | 226 | 2.0 | 4.0 | 0.00 | 0.00 | 0.00 | 76 | 1016.1 |
| 20260906151928 | 82 | 135 | 2.0 | 4.0 | 0.00 | 0.00 | 0.00 | 76 | 1016.2 |
| 20260906151429 | 81 | 169 | 1.0 | 3.0 | 0.00 | 0.00 | 0.00 | 77 | 1016.2 |
| 20260906150929 | 81 | 150 | 0.0 | 3.0 | 0.00 | 0.00 | 0.00 | 78 | 1016.1 |
| 20260906150429 | 81 | 236 | 0.0 | 2.0 | 0.00 | 0.00 | 0.00 | 81 | 1016.2 |
| 20260906145929 | 80 | 225 | 0.0 | 2.0 | 0.00 | 0.00 | 0.00 | 81 | 1016.2 |
| 20260906145428 | 80 | 247 | 1.0 | 3.0 | 0.00 | 0.00 | 0.00 | 81 | 1016.2 |
| 20260906144933 | 80 | 250 | 1.0 | 4.0 | 0.00 | 0.00 | 0.00 | 81 | 1016.1 |
| 20260906144928 | 80 | 243 | 1.0 | 4.0 | 0.00 | 0.00 | 0.00 | 81 | 1016.1 |
| 20260906143930 | 80 | 159 | 1.0 | 3.0 | 0.00 | 0.00 | 0.00 | 81 | 1016.2 |
| 20260906143430 | 80 | 246 | 1.0 | 3.0 | 0.00 | 0.00 | 0.00 | 80 | 1016.1 |
| 20260906142930 | 79 | 242 | 1.0 | 3.0 | 0.00 | 0.00 | 0.00 | 81 | 1016.2 |
| 20260906142429 | 79 | 278 | 1.0 | 4.0 | 0.00 | 0.00 | 0.00 | 81 | 1016.2 |
| 20260906141929 | 79 | 310 | 1.0 | 4.0 | 0.00 | 0.00 | 0.00 | 81 | 1016.2 |
| 20260906141430 | 79 | 316 | 2.0 | 4.0 | 0.00 | 0.00 | 0.00 | 82 | 1016.0 |
| 20260906140929 | 78 | 238 | 2.0 | 5.0 | 0.00 | 0.00 | 0.00 | 82 | 1015.8 |
| 20260906140429 | 78 | 241 | 3.0 | 5.0 | 0.00 | 0.00 | 0.00 | 82 | 1015.6 |
| 20260906135934 | 78 | 146 | 3.0 | 7.0 | 0.00 | 0.00 | 0.00 | 82 | 1015.6 |
| 20260906135930 | 78 | 106 | 3.0 | 7.0 | 0.00 | 0.00 | 0.00 | 83 | 1015.6 |
| 20260906134929 | 78 | 82 | 2.0 | 6.0 | 0.00 | 0.00 | 0.00 | 83 | 1015.5 |
| 20260906134430 | 78 | 91 | 2.0 | 5.0 | 0.00 | 0.00 | 0.00 | 83 | 1015.6 |
| 20260906133929 | 78 | 122 | 3.0 | 5.0 | 0.00 | 0.00 | 0.00 | 83 | 1015.6 |
| 20260906133429 | 78 | 65 | 3.0 | 7.0 | 0.00 | 0.00 | 0.00 | 83 | 1015.7 |
| 20260906133200 | 78 | 113 | 2.0 | 7.0 | 0.00 | 0.00 | 0.00 | 82 | 1015.7 |
| 20260906132428 | 78 | 137 | 3.0 | 7.0 | 0.00 | 0.00 | 0.00 | 82 | 1015.7 |
| 20260906131928 | 78 | 140 | 3.0 | 7.0 | 0.00 | 0.00 | 0.00 | 82 | 1015.6 |
| 20260906131433 | 78 | 127 | 3.0 | 7.0 | 0.00 | 0.00 | 0.00 | 82 | 1015.5 |
| 20260906131429 | 78 | 101 | 3.0 | 7.0 | 0.00 | 0.00 | 0.00 | 82 | 1015.6 |
| 20260906130428 | 78 | 162 | 3.0 | 7.0 | 0.00 | 0.00 | 0.00 | 82 | 1015.5 |
| 20260906125929 | 78 | 124 | 3.0 | 7.0 | 0.00 | 0.00 | 0.00 | 82 | 1015.5 |
| 20260906125429 | 78 | 236 | 2.0 | 6.0 | 0.00 | 0.00 | 0.00 | 82 | 1015.5 |
| 20260906125200 | 77 | 79 | 2.0 | 7.0 | 0.00 | 0.00 | 0.00 | 83 | 1015.3 |
| 20260906124432 | 77 | 110 | 3.0 | 8.0 | 0.00 | 0.00 | 0.00 | 82 | 1015.3 |
| 20260906123932 | 77 | 72 | 4.0 | 8.0 | 0.00 | 0.00 | 0.00 | 82 | 1015.2 |
| 20260906123431 | 77 | 133 | 3.0 | 6.0 | 0.00 | 0.00 | 0.00 | 83 | 1015.1 |
| 20260906123202 | 77 | 112 | 3.0 | 6.0 | 0.00 | 0.00 | 0.00 | 83 | 1015.1 |
| 20260906122431 | 77 | 116 | 2.0 | 6.0 | 0.00 | 0.00 | 0.00 | 82 | 1015.0 |
| 20260906121931 | 77 | 141 | 2.0 | 6.0 | 0.00 | 0.00 | 0.00 | 82 | 1015.0 |
| 20260906121432 | 77 | 105 | 2.0 | 6.0 | 0.00 | 0.00 | 0.00 | 82 | 1015.0 |
| 20260906120931 | 77 | 210 | 2.0 | 4.0 | 0.00 | 0.00 | 0.00 | 82 | 1014.9 |
| 20260906120432 | 77 | 134 | 2.0 | 5.0 | 0.00 | 0.00 | 0.00 | 82 | 1014.8 |
| 20260906115932 | 77 | 128 | 3.0 | 6.0 | 0.00 | 0.00 | 0.00 | 82 | 1014.7 |
| 20260906115431 | 77 | 131 | 3.0 | 6.0 | 0.00 | 0.00 | 0.00 | 81 | 1014.6 |
| 20260906114930 | 77 | 164 | 3.0 | 7.0 | 0.00 | 0.00 | 0.00 | 81 | 1014.6 |
| 20260906114431 | 77 | 108 | 3.0 | 7.0 | 0.00 | 0.00 | 0.00 | 81 | 1014.6 |
| 20260906114202 | 77 | 62 | 3.0 | 7.0 | 0.00 | 0.00 | 0.00 | 81 | 1014.4 |
| 20260906113702 | 77 | 113 | 4.0 | 7.0 | 0.00 | 0.00 | 0.00 | 81 | 1014.3 |
| 20260906112931 | 77 | 106 | 4.0 | 7.0 | 0.00 | 0.00 | 0.00 | 81 | 1014.3 |
| 20260906112702 | 78 | 124 | 4.0 | 7.0 | 0.00 | 0.00 | 0.00 | 81 | 1014.3 |
| 20260906112201 | 78 | 118 | 4.0 | 8.0 | 0.00 | 0.00 | 0.00 | 81 | 1014.4 |
| 20260906111432 | 78 | 126 | 4.0 | 8.0 | 0.00 | 0.00 | 0.00 | 81 | 1014.3 |
| 20260906110931 | 77 | 153 | 4.0 | 7.0 | 0.00 | 0.00 | 0.00 | 81 | 1014.3 |
| 20260906110431 | 77 | 148 | 4.0 | 7.0 | 0.00 | 0.00 | 0.00 | 81 | 1014.4 |
| 20260906105931 | 77 | 141 | 4.0 | 7.0 | 0.00 | 0.00 | 0.00 | 81 | 1014.3 |
| 20260906105701 | 77 | 113 | 4.0 | 7.0 | 0.00 | 0.00 | 0.00 | 81 | 1014.2 |
| 20260906104931 | 77 | 184 | 4.0 | 8.0 | 0.00 | 0.00 | 0.00 | 82 | 1014.4 |
| 20260906104431 | 77 | 82 | 5.0 | 9.0 | 0.00 | 0.00 | 0.00 | 82 | 1014.3 |
| 20260906104202 | 77 | 134 | 4.0 | 9.0 | 0.00 | 0.00 | 0.00 | 82 | 1014.4 |
| 20260906103431 | 77 | 97 | 4.0 | 7.0 | 0.00 | 0.00 | 0.00 | 82 | 1014.4 |
| 20260906102931 | 78 | 158 | 4.0 | 7.0 | 0.00 | 0.00 | 0.00 | 81 | 1014.3 |
| 20260906102431 | 78 | 157 | 4.0 | 7.0 | 0.00 | 0.00 | 0.00 | 81 | 1014.3 |
| 20260906102203 | 78 | 63 | 4.0 | 8.0 | 0.00 | 0.00 | 0.00 | 81 | 1014.3 |
| 20260906101431 | 78 | 130 | 4.0 | 8.0 | 0.00 | 0.00 | 0.00 | 81 | 1014.2 |
| 20260906101203 | 78 | 137 | 4.0 | 7.0 | 0.00 | 0.00 | 0.00 | 80 | 1014.3 |
| 20260906100431 | 78 | 157 | 4.0 | 8.0 | 0.00 | 0.00 | 0.00 | 80 | 1014.2 |
| 20260906095931 | 78 | 150 | 4.0 | 9.0 | 0.00 | 0.00 | 0.00 | 79 | 1014.2 |
| 20260906095431 | 79 | 162 | 5.0 | 11.0 | 0.00 | 0.00 | 0.00 | 79 | 1014.1 |
| 20260906095202 | 79 | 98 | 6.0 | 11.0 | 0.00 | 0.00 | 0.00 | 79 | 1014.1 |
| 20260906094432 | 79 | 49 | 6.0 | 11.0 | 0.00 | 0.00 | 0.00 | 79 | 1014.1 |
| 20260906093931 | 79 | 83 | 5.0 | 10.0 | 0.00 | 0.00 | 0.00 | 79 | 1014.2 |
| 20260906093431 | 79 | 146 | 5.0 | 10.0 | 0.00 | 0.00 | 0.00 | 79 | 1014.2 |
| 20260906092931 | 79 | 98 | 5.0 | 9.0 | 0.00 | 0.00 | 0.00 | 78 | 1014.2 |
| 20260906092431 | 79 | 128 | 5.0 | 9.0 | 0.00 | 0.00 | 0.00 | 78 | 1014.2 |
| 20260906091931 | 79 | 117 | 5.0 | 9.0 | 0.00 | 0.00 | 0.00 | 78 | 1014.2 |
| 20260906091431 | 78 | 89 | 4.0 | 8.0 | 0.00 | 0.00 | 0.00 | 79 | 1014.3 |
| 20260906090931 | 78 | 89 | 4.0 | 8.0 | 0.00 | 0.00 | 0.00 | 79 | 1014.3 |
| 20260906090431 | 78 | 103 | 4.0 | 9.0 | 0.00 | 0.00 | 0.00 | 79 | 1014.4 |
| 20260906085931 | 78 | 112 | 4.0 | 9.0 | 0.00 | 0.00 | 0.00 | 79 | 1014.4 |
| 20260906085431 | 78 | 127 | 4.0 | 9.0 | 0.00 | 0.00 | 0.00 | 79 | 1014.3 |
| 20260906084931 | 79 | 158 | 5.0 | 9.0 | 0.00 | 0.00 | 0.00 | 79 | 1014.4 |
| 20260906084431 | 79 | 108 | 4.0 | 8.0 | 0.00 | 0.00 | 0.00 | 78 | 1014.3 |
| 20260906083931 | 79 | 150 | 4.0 | 8.0 | 0.00 | 0.00 | 0.00 | 78 | 1014.3 |
| 20260906083431 | 79 | 117 | 4.0 | 8.0 | 0.00 | 0.00 | 0.00 | 78 | 1014.3 |
| 20260906082931 | 79 | 84 | 4.0 | 10.0 | 0.00 | 0.00 | 0.00 | 77 | 1014.2 |
| 20260906082431 | 80 | 105 | 5.0 | 10.0 | 0.00 | 0.00 | 0.00 | 77 | 1014.2 |
| 20260906081931 | 80 | 207 | 5.0 | 10.0 | 0.00 | 0.00 | 0.00 | 76 | 1014.2 |
| 20260906081431 | 80 | 148 | 5.0 | 10.0 | 0.00 | 0.00 | 0.00 | 76 | 1014.1 |
| 20260906080932 | 80 | 91 | 5.0 | 11.0 | 0.00 | 0.00 | 0.00 | 77 | 1014.1 |
| 20260906080431 | 80 | 87 | 5.0 | 11.0 | 0.00 | 0.00 | 0.00 | 77 | 1014.2 |
| 20260906075931 | 80 | 88 | 4.0 | 9.0 | 0.00 | 0.00 | 0.00 | 77 | 1014.1 |
| 20260906075434 | 79 | 106 | 4.0 | 11.0 | 0.00 | 0.00 | 0.00 | 78 | 1014.2 |
| 20260906074931 | 80 | 64 | 4.0 | 11.0 | 0.00 | 0.00 | 0.00 | 78 | 1014.3 |
| 20260906074707 | 80 | 85 | 4.0 | 9.0 | 0.00 | 0.00 | 0.00 | 76 | 1014.2 |
| 20260906074431 | 80 | 127 | 4.0 | 7.0 | 0.00 | 0.00 | 0.00 | 77 | 1014.2 |
| 20260906073703 | 80 | 65 | 5.0 | 10.0 | 0.00 | 0.00 | 0.00 | 75 | 1014.1 |
| 20260906072931 | 81 | 108 | 4.0 | 10.0 | 0.00 | 0.00 | 0.00 | 74 | 1014.1 |
| 20260906072431 | 81 | 102 | 4.0 | 9.0 | 0.00 | 0.00 | 0.00 | 74 | 1014.0 |
| 20260906072203 | 81 | 94 | 5.0 | 10.0 | 0.00 | 0.00 | 0.00 | 73 | 1014.0 |
| 20260906071431 | 81 | 59 | 5.0 | 10.0 | 0.00 | 0.00 | 0.00 | 73 | 1014.0 |
| 20260906070931 | 81 | 103 | 5.0 | 14.0 | 0.00 | 0.00 | 0.00 | 73 | 1013.9 |
| 20260906070431 | 81 | 122 | 4.0 | 14.0 | 0.00 | 0.00 | 0.00 | 74 | 1014.1 |
| 20260906065930 | 81 | 79 | 4.0 | 11.0 | 0.00 | 0.00 | 0.00 | 74 | 1014.2 |
| 20260906065430 | 81 | 112 | 5.0 | 9.0 | 0.00 | 0.00 | 0.00 | 75 | 1014.3 |
| 20260906064931 | 80 | 44 | 4.0 | 9.0 | 0.00 | 0.00 | 0.00 | 75 | 1014.3 |
| 20260906064430 | 80 | 118 | 5.0 | 10.0 | 0.00 | 0.00 | 0.00 | 76 | 1014.3 |
| 20260906063931 | 80 | 107 | 4.0 | 10.0 | 0.00 | 0.00 | 0.00 | 76 | 1014.3 |
| 20260906063430 | 80 | 60 | 3.0 | 6.0 | 0.00 | 0.00 | 0.00 | 77 | 1014.3 |
| 20260906062931 | 80 | 60 | 4.0 | 9.0 | 0.00 | 0.00 | 0.00 | 78 | 1014.3 |
| 20260906062431 | 79 | 50 | 4.0 | 9.0 | 0.00 | 0.00 | 0.00 | 79 | 1014.3 |
| 20260906061931 | 79 | 60 | 4.0 | 7.0 | 0.00 | 0.00 | 0.00 | 80 | 1014.3 |
| 20260906061432 | 79 | 76 | 4.0 | 8.0 | 0.00 | 0.00 | 0.00 | 80 | 1014.4 |
| 20260906060930 | 79 | 110 | 4.0 | 10.0 | 0.00 | 0.00 | 0.00 | 80 | 1014.4 |
| 20260906060431 | 79 | 72 | 4.0 | 10.0 | 0.00 | 0.00 | 0.00 | 80 | 1014.6 |
| 20260906055931 | 79 | 90 | 4.0 | 7.0 | 0.00 | 0.00 | 0.00 | 79 | 1014.4 |
| 20260906055431 | 79 | 81 | 4.0 | 7.0 | 0.00 | 0.00 | 0.00 | 79 | 1014.6 |
| 20260906054931 | 79 | 63 | 4.0 | 7.0 | 0.00 | 0.00 | 0.00 | 78 | 1014.6 |
| 20260906054431 | 79 | 98 | 3.0 | 6.0 | 0.00 | 0.00 | 0.00 | 78 | 1014.6 |
| 20260906053931 | 80 | 67 | 3.0 | 6.0 | 0.00 | 0.00 | 0.00 | 78 | 1014.4 |
| 20260906053431 | 80 | 77 | 3.0 | 6.0 | 0.00 | 0.00 | 0.00 | 77 | 1014.6 |
| 20260906052931 | 80 | 65 | 3.0 | 8.0 | 0.00 | 0.00 | 0.00 | 77 | 1014.4 |
| 20260906052431 | 80 | 67 | 3.0 | 8.0 | 0.00 | 0.00 | 0.00 | 76 | 1014.6 |
| 20260906051931 | 80 | 71 | 3.0 | 5.0 | 0.00 | 0.00 | 0.00 | 75 | 1014.4 |
| 20260906051431 | 81 | 61 | 3.0 | 5.0 | 0.00 | 0.00 | 0.00 | 74 | 1014.4 |
| 20260906050931 | 81 | 60 | 2.0 | 5.0 | 0.00 | 0.00 | 0.00 | 74 | 1014.4 |
| 20260906050430 | 82 | 69 | 2.0 | 5.0 | 0.00 | 0.00 | 0.00 | 73 | 1014.4 |
| 20260906045931 | 82 | 80 | 2.0 | 5.0 | 0.00 | 0.00 | 0.00 | 71 | 1014.3 |
| 20260906045431 | 82 | 96 | 2.0 | 5.0 | 0.00 | 0.00 | 0.00 | 71 | 1014.2 |
| 20260906045202 | 83 | 123 | 2.0 | 5.0 | 0.00 | 0.00 | 0.00 | 71 | 1014.3 |
| 20260906044704 | 83 | 148 | 2.0 | 5.0 | 0.00 | 0.00 | 0.00 | 70 | 1014.2 |
| 20260906043932 | 83 | 80 | 3.0 | 5.0 | 0.00 | 0.00 | 0.00 | 69 | 1014.1 |
| 20260906043432 | 83 | 77 | 3.0 | 5.0 | 0.00 | 0.00 | 0.00 | 68 | 1014.1 |
| 20260906042931 | 84 | 141 | 2.0 | 5.0 | 0.00 | 0.00 | 0.00 | 68 | 1014.2 |
| 20260906042702 | 84 | 124 | 2.0 | 5.0 | 0.00 | 0.00 | 0.00 | 68 | 1014.1 |
| 20260906041931 | 84 | 101 | 2.0 | 4.0 | 0.00 | 0.00 | 0.00 | 68 | 1014.2 |
| 20260906041431 | 84 | 84 | 2.0 | 4.0 | 0.00 | 0.00 | 0.00 | 67 | 1014.1 |
| 20260906040929 | 84 | 82 | 2.0 | 4.0 | 0.00 | 0.00 | 0.00 | 67 | 1014.1 |
| 20260906040429 | 84 | 132 | 3.0 | 6.0 | 0.00 | 0.00 | 0.00 | 67 | 1014.1 |
| 20260906035929 | 84 | 119 | 3.0 | 6.0 | 0.00 | 0.00 | 0.00 | 67 | 1014.1 |
| 20260906035429 | 84 | 120 | 3.0 | 6.0 | 0.00 | 0.00 | 0.00 | 67 | 1014.2 |
| 20260906034929 | 84 | 114 | 3.0 | 5.0 | 0.00 | 0.00 | 0.00 | 68 | 1014.2 |
| 20260906034429 | 84 | 148 | 2.0 | 5.0 | 0.00 | 0.00 | 0.00 | 68 | 1014.2 |
| 20260906033930 | 84 | 124 | 2.0 | 5.0 | 0.00 | 0.00 | 0.00 | 68 | 1014.3 |
| 20260906033429 | 84 | 98 | 2.0 | 5.0 | 0.00 | 0.00 | 0.00 | 68 | 1014.2 |
| 20260906032932 | 84 | 145 | 3.0 | 6.0 | 0.00 | 0.00 | 0.00 | 68 | 1014.0 |
| 20260906032429 | 84 | 117 | 3.0 | 6.0 | 0.00 | 0.00 | 0.00 | 68 | 1014.0 |
| 20260906031929 | 85 | 78 | 3.0 | 6.0 | 0.00 | 0.00 | 0.00 | 68 | 1013.9 |
| 20260906031429 | 85 | 97 | 3.0 | 6.0 | 0.00 | 0.00 | 0.00 | 68 | 1013.9 |
| 20260906030929 | 85 | 114 | 3.0 | 6.0 | 0.00 | 0.00 | 0.00 | 68 | 1013.7 |
| 20260906030659 | 85 | 91 | 3.0 | 6.0 | 0.00 | 0.00 | 0.00 | 68 | 1013.6 |
| 20260906025928 | 85 | 158 | 3.0 | 6.0 | 0.00 | 0.00 | 0.00 | 67 | 1013.5 |
| 20260906025428 | 85 | 60 | 3.0 | 6.0 | 0.00 | 0.00 | 0.00 | 67 | 1013.6 |
| 20260906024928 | 85 | 133 | 2.0 | 6.0 | 0.00 | 0.00 | 0.00 | 67 | 1013.6 |
| 20260906024429 | 85 | 143 | 2.0 | 6.0 | 0.00 | 0.00 | 0.00 | 67 | 1013.5 |
| 20260906023930 | 85 | 221 | 3.0 | 6.0 | 0.00 | 0.00 | 0.00 | 66 | 1013.4 |
| 20260906023429 | 85 | 152 | 3.0 | 6.0 | 0.00 | 0.00 | 0.00 | 66 | 1013.3 |
| 20260906023200 | 85 | 101 | 2.0 | 5.0 | 0.00 | 0.00 | 0.00 | 66 | 1013.4 |
| 20260906022429 | 85 | 141 | 2.0 | 5.0 | 0.00 | 0.00 | 0.00 | 66 | 1013.2 |
| 20260906021928 | 86 | 115 | 2.0 | 5.0 | 0.00 | 0.00 | 0.00 | 66 | 1013.1 |
| 20260906021429 | 86 | 143 | 2.0 | 5.0 | 0.00 | 0.00 | 0.00 | 66 | 1013.1 |
| 20260906020929 | 86 | 83 | 2.0 | 5.0 | 0.00 | 0.00 | 0.00 | 65 | 1013.0 |
| 20260906020429 | 86 | 89 | 3.0 | 5.0 | 0.00 | 0.00 | 0.00 | 65 | 1013.0 |
| 20260906020159 | 86 | 99 | 2.0 | 5.0 | 0.00 | 0.00 | 0.00 | 65 | 1012.8 |
| 20260906015428 | 86 | 141 | 1.0 | 4.0 | 0.00 | 0.00 | 0.00 | 65 | 1012.8 |
| 20260906014929 | 86 | 127 | 2.0 | 5.0 | 0.00 | 0.00 | 0.00 | 65 | 1012.7 |
| 20260906014428 | 87 | 94 | 2.0 | 5.0 | 0.00 | 0.00 | 0.00 | 65 | 1012.7 |
| 20260906013929 | 87 | 78 | 1.0 | 3.0 | 0.00 | 0.00 | 0.00 | 65 | 1012.6 |
| 20260906013915 | 87 | 165 | 1.0 | 4.0 | 0.00 | 0.00 | 0.00 | 64 | 1012.4 |
| 20260906013859 | 87 | 116 | 1.0 | 4.0 | 0.00 | 0.00 | 0.00 | 64 | 1012.5 |
| 20260906012429 | 87 | 109 | 1.0 | 3.0 | 0.00 | 0.00 | 0.00 | 64 | 1012.3 |
| 20260906011928 | 87 | 108 | 1.0 | 4.0 | 0.00 | 0.00 | 0.00 | 64 | 1012.2 |
| 20260906011428 | 88 | 108 | 1.0 | 4.0 | 0.00 | 0.00 | 0.00 | 63 | 1012.2 |
| 20260906011200 | 88 | 93 | 1.0 | 4.0 | 0.00 | 0.00 | 0.00 | 63 | 1012.1 |
| 20260906010429 | 88 | 103 | 1.0 | 3.0 | 0.00 | 0.00 | 0.00 | 63 | 1011.9 |
| 20260906005928 | 89 | 96 | 1.0 | 2.0 | 0.00 | 0.00 | 0.00 | 62 | 1011.9 |
| 20260906005428 | 89 | 156 | 1.0 | 3.0 | 0.00 | 0.00 | 0.00 | 61 | 1011.9 |
| 20260906005202 | 90 | 212 | 1.0 | 3.0 | 0.00 | 0.00 | 0.00 | 61 | 1011.9 |
| 20260906004429 | 90 | 134 | 1.0 | 2.0 | 0.00 | 0.00 | 0.00 | 60 | 1012.1 |
| 20260906003929 | 91 | 134 | 1.0 | 4.0 | 0.00 | 0.00 | 0.00 | 59 | 1012.2 |
| 20260906003429 | 92 | 133 | 2.0 | 5.0 | 0.00 | 0.00 | 0.00 | 57 | 1012.2 |
| 20260906002930 | 93 | 128 | 2.0 | 5.0 | 0.00 | 0.00 | 0.00 | 56 | 1012.2 |
| 20260906002428 | 94 | 114 | 1.0 | 3.0 | 0.00 | 0.00 | 0.00 | 55 | 1012.3 |
| 20260906001928 | 94 | 110 | 1.0 | 3.0 | 0.00 | 0.00 | 0.00 | 54 | 1012.3 |
| 20260906001428 | 95 | 151 | 0.0 | 2.0 | 0.00 | 0.00 | 0.00 | 53 | 1012.3 |
| 20260906000928 | 95 | 159 | 0.0 | 3.0 | 0.00 | 0.00 | 0.00 | 52 | 1012.3 |
| 20260906000428 | 96 | 157 | 1.0 | 3.0 | 0.00 | 0.00 | 0.00 | 52 | 1012.3 |
| 20260906000159 | 95 | 129 | 2.0 | 4.0 | 0.00 | 0.00 | 0.00 | 53 | 1012.4 |
| 20260905235429 | 95 | 248 | 2.0 | 7.0 | 0.00 | 0.00 | 0.00 | 52 | 1012.3 |
| 20260905235159 | 96 | 175 | 3.0 | 9.0 | 0.00 | 0.00 | 0.00 | 51 | 1012.2 |
| 20260905234428 | 96 | 168 | 3.0 | 9.0 | 0.00 | 0.00 | 0.00 | 51 | 1012.2 |
| 20260905233931 | 96 | 207 | 3.0 | 7.0 | 0.00 | 0.00 | 0.00 | 50 | 1012.1 |
| 20260905233431 | 96 | 207 | 4.0 | 8.0 | 0.00 | 0.00 | 0.00 | 50 | 1011.9 |
| 20260905232931 | 96 | 224 | 5.0 | 9.0 | 0.00 | 0.00 | 0.00 | 50 | 1011.9 |
| 20260905232431 | 96 | 213 | 4.0 | 9.0 | 0.00 | 0.00 | 0.00 | 49 | 1011.9 |
| 20260905231931 | 96 | 252 | 4.0 | 9.0 | 0.00 | 0.00 | 0.00 | 50 | 1011.9 |
| 20260905231431 | 96 | 94 | 3.0 | 9.0 | 0.00 | 0.00 | 0.00 | 51 | 1011.8 |
| 20260905230931 | 96 | 167 | 3.0 | 7.0 | 0.00 | 0.00 | 0.00 | 53 | 1011.8 |
| 20260905230430 | 96 | 163 | 4.0 | 7.0 | 0.00 | 0.00 | 0.00 | 52 | 1011.8 |
| 20260905230201 | 96 | 160 | 5.0 | 10.0 | 0.00 | 0.00 | 0.00 | 52 | 1011.9 |
| 20260905225431 | 96 | 132 | 4.0 | 10.0 | 0.00 | 0.00 | 0.00 | 52 | 1011.8 |
| 20260905225201 | 96 | 138 | 4.0 | 9.0 | 0.00 | 0.00 | 0.00 | 53 | 1011.9 |
| 20260905224431 | 96 | 176 | 4.0 | 10.0 | 0.00 | 0.00 | 0.00 | 54 | 1011.9 |
| 20260905223932 | 96 | 158 | 4.0 | 10.0 | 0.00 | 0.00 | 0.00 | 52 | 1011.9 |
| 20260905223431 | 96 | 124 | 5.0 | 10.0 | 0.00 | 0.00 | 0.00 | 54 | 1011.9 |
| 20260905222931 | 96 | 52 | 6.0 | 11.0 | 0.00 | 0.00 | 0.00 | 55 | 1011.9 |
| 20260905222431 | 96 | 60 | 5.0 | 11.0 | 0.00 | 0.00 | 0.00 | 53 | 1011.9 |
| 20260905221931 | 96 | 110 | 5.0 | 9.0 | 0.00 | 0.00 | 0.00 | 53 | 1011.9 |
| 20260905221431 | 96 | 207 | 5.0 | 11.0 | 0.00 | 0.00 | 0.00 | 55 | 1011.9 |
| 20260905220931 | 96 | 122 | 5.0 | 11.0 | 0.00 | 0.00 | 0.00 | 53 | 1011.8 |
| 20260905220431 | 96 | 141 | 5.0 | 9.0 | 0.00 | 0.00 | 0.00 | 54 | 1011.9 |
| 20260905215931 | 96 | 71 | 6.0 | 13.0 | 0.00 | 0.00 | 0.00 | 55 | 1011.9 |
| 20260905215702 | 96 | 105 | 6.0 | 13.0 | 0.00 | 0.00 | 0.00 | 53 | 1011.9 |
| 20260905215202 | 96 | 92 | 6.0 | 12.0 | 0.00 | 0.00 | 0.00 | 55 | 1011.8 |
| 20260905214431 | 96 | 131 | 6.0 | 12.0 | 0.00 | 0.00 | 0.00 | 54 | 1011.8 |
| 20260905213931 | 96 | 92 | 6.0 | 12.0 | 0.00 | 0.00 | 0.00 | 53 | 1011.9 |
| 20260905213700 | 96 | 110 | 5.0 | 12.0 | 0.00 | 0.00 | 0.00 | 54 | 1011.9 |
| 20260905212929 | 96 | 217 | 6.0 | 12.0 | 0.00 | 0.00 | 0.00 | 54 | 1012.2 |
| 20260905212429 | 96 | 134 | 6.0 | 12.0 | 0.00 | 0.00 | 0.00 | 55 | 1012.3 |
| 20260905211929 | 96 | 127 | 6.0 | 12.0 | 0.00 | 0.00 | 0.00 | 54 | 1012.4 |
| 20260905211429 | 96 | 229 | 6.0 | 14.0 | 0.00 | 0.00 | 0.00 | 52 | 1012.4 |
| 20260905210930 | 96 | 137 | 6.0 | 14.0 | 0.00 | 0.00 | 0.00 | 52 | 1012.5 |
| 20260905210429 | 96 | 110 | 6.0 | 13.0 | 0.00 | 0.00 | 0.00 | 54 | 1012.6 |
| 20260905205928 | 96 | 104 | 6.0 | 16.0 | 0.00 | 0.00 | 0.00 | 53 | 1012.7 |
| 20260905205429 | 96 | 75 | 5.0 | 16.0 | 0.00 | 0.00 | 0.00 | 53 | 1012.8 |
| 20260905204929 | 96 | 63 | 4.0 | 7.0 | 0.00 | 0.00 | 0.00 | 57 | 1012.9 |
| 20260905204428 | 96 | 100 | 5.0 | 8.0 | 0.00 | 0.00 | 0.00 | 58 | 1012.9 |
| 20260905203931 | 96 | 113 | 6.0 | 11.0 | 0.00 | 0.00 | 0.00 | 54 | 1012.9 |
| 20260905203429 | 96 | 219 | 5.0 | 11.0 | 0.00 | 0.00 | 0.00 | 54 | 1013.0 |
| 20260905202929 | 96 | 143 | 5.0 | 10.0 | 0.00 | 0.00 | 0.00 | 53 | 1013.2 |
| 20260905202429 | 96 | 120 | 4.0 | 9.0 | 0.00 | 0.00 | 0.00 | 57 | 1013.2 |
| 20260905201929 | 96 | 145 | 6.0 | 11.0 | 0.00 | 0.00 | 0.00 | 55 | 1013.4 |
| 20260905201428 | 95 | 63 | 6.0 | 11.0 | 0.00 | 0.00 | 0.00 | 57 | 1013.4 |
| 20260905200929 | 96 | 42 | 4.0 | 12.0 | 0.00 | 0.00 | 0.00 | 55 | 1013.5 |
| 20260905200429 | 95 | 82 | 5.0 | 12.0 | 0.00 | 0.00 | 0.00 | 57 | 1013.5 |
| 20260905195929 | 95 | 107 | 5.0 | 10.0 | 0.00 | 0.00 | 0.00 | 58 | 1013.7 |
| 20260905195429 | 95 | 59 | 6.0 | 11.0 | 0.00 | 0.00 | 0.00 | 56 | 1013.7 |
| 20260905194929 | 95 | 68 | 5.0 | 11.0 | 0.00 | 0.00 | 0.00 | 58 | 1013.9 |
| 20260905194429 | 95 | 66 | 4.0 | 8.0 | 0.00 | 0.00 | 0.00 | 57 | 1013.9 |
| 20260905194201 | 95 | 43 | 4.0 | 8.0 | 0.00 | 0.00 | 0.00 | 55 | 1014.2 |
| 20260905193429 | 95 | 131 | 6.0 | 11.0 | 0.00 | 0.00 | 0.00 | 57 | 1014.2 |
| 20260905192929 | 95 | 70 | 6.0 | 13.0 | 0.00 | 0.00 | 0.00 | 55 | 1014.3 |
| 20260905192429 | 96 | 74 | 6.0 | 13.0 | 0.00 | 0.00 | 0.00 | 54 | 1014.4 |
| 20260905191929 | 96 | 58 | 5.0 | 12.0 | 0.00 | 0.00 | 0.00 | 56 | 1014.4 |
| 20260905191429 | 96 | 112 | 4.0 | 10.0 | 0.00 | 0.00 | 0.00 | 56 | 1014.6 |
| 20260905190932 | 96 | 65 | 4.0 | 9.0 | 0.00 | 0.00 | 0.00 | 57 | 1014.6 |
| 20260905190702 | 95 | 122 | 3.0 | 9.0 | 0.00 | 0.00 | 0.00 | 58 | 1014.6 |
| 20260905185932 | 95 | 102 | 4.0 | 10.0 | 0.00 | 0.00 | 0.00 | 56 | 1014.6 |